This demonstration page uses our WeatherBlox Daily Observations layout. Learn more.

38.89511, -77.03637

Hourly Observations for December 28, 2016

Temp ( °F °C ) Dew Point ( °F °C ) Humidity (%) Winds ( mph kmh ) Pressure ( in mb ) Visibility ( mi km ) Precip ( " mm )
12:52 am 00:52 Clear 50 10 30 -1.1 46 46 NW 10 17 30.01 1016 10 16.0934 0 0
1:52 am 01:52 Clear 48 8.9 29 -1.7 48 48 NW 14 22 30.02 1017 10 16.0934 0 0
2:52 am 02:52 Clear 47 8.3 29 -1.7 50 50 NNW 20 31 30.05 1018 10 16.0934 0 0
3:52 am 03:52 Clear 46 7.8 27 -2.8 47 47 NW 10 17 30.07 1018 10 16.0934 0 0
4:52 am 04:52 Clear 45 7.2 25 -3.9 46 46 WNW 16 26 30.09 1019 10 16.0934 0 0
5:52 am 05:52 Clear 43 6.1 25 -3.9 49 49 NNW 8 13 30.12 1020 10 16.0934 0 0
6:52 am 06:52 Clear 40 4.4 27 -2.8 60 60 N 10 17 30.15 1021 10 16.0934 0 0
7:52 am 07:52 Mostly Sunny 40 4.4 27 -2.8 60 60 N 8 13 30.17 1022 10 16.0934 0 0
8:52 am 08:52 Mostly Sunny 44 6.7 27 -2.8 51 51 NW 9 15 30.19 1023 10 16.0934 0 0
9:52 am 09:52 Mostly Sunny 45 7.2 27 -2.8 49 49 NW 13 20 30.22 1023 10 16.0934 0 0
10:52 am 10:52 Mostly Sunny 47 8.3 28 -2.2 48 48 NNW 10 17 30.21 1023 10 16.0934 0 0
11:52 am 11:52 Partly Cloudy 48 8.9 27 -2.8 44 44 NW 6 9 30.19 1022 10 16.0934 0 0
12:52 pm 12:52 Partly Cloudy 50 10 27 -2.8 41 41 NW 9 15 30.16 1022 10 16.0934 0 0
1:52 pm 13:52 Mostly Sunny 51 10.6 27 -2.8 39 39 NW 9 15 30.15 1021 10 16.0934 0 0
2:52 pm 14:52 Mostly Sunny 51 10.6 24 -4.4 35 35 W 5 7 30.14 1021 10 16.0934 0 0
3:52 pm 15:52 Mostly Sunny 51 10.6 24 -4.4 35 35 Calm 30.14 1021 10 16.0934 0 0
4:52 pm 16:52 Mostly Sunny 45 7.2 30 -1.1 56 56 NNE 6 9 30.12 1020 10 16.0934 0 0
5:52 pm 17:52 Clear 44 6.7 30 -1.1 58 58 Calm 30.13 1020 10 16.0934 0 0
6:52 pm 18:52 Clear 44 6.7 28 -2.2 53 53 E 3 6 30.14 1021 10 16.0934 0 0
7:52 pm 19:52 Clear 41 5 28 -2.2 60 60 Calm 30.14 1021 10 16.0934 0 0
8:52 pm 20:52 Clear 40 4.4 28 -2.2 63 63 SSE 5 7 30.14 1021 10 16.0934 0 0
9:52 pm 21:52 Clear 40 4.4 30 -1.1 68 68 SSE 6 9 30.13 1020 10 16.0934 0 0
10:52 pm 22:52 Clear 39 3.9 30 -1.1 70 70 SSE 7 11 30.11 1020 10 16.0934 0 0
11:52 pm 23:52 Clear 37 2.8 30 -1.1 76 76 S 6 9 30.08 1019 10 16.0934 0 0

Powered by AerisWeather